This demonstration page uses our WeatherBlox Daily Observations layout. Learn more.

Left ArrowRight Arrow

39.92423, -83.80882

Hourly Observations for June 23, 2015

Temp ( °F °C ) Dew Point ( °F °C ) Humidity (%) Winds ( mph kmh ) Pressure ( in mb ) Visibility ( mi km ) Precip ( " mm )
12:56 am 00:56 Clear 77 25 73 22.7 87 87 SSW 13 20 29.91 1013 8 12.87472 0 0
1:56 am 01:56 Mostly Cloudy 78 25.5 73 22.7 85 85 SSW 12 19 29.9 1013 7 11.26538 0 0
2:56 am 02:56 Mostly Cloudy 78 25.5 73 22.7 85 85 SW 16 26 29.9 1013 7 11.26538 0 0
3:31 am 03:31 Mostly Clear 79 26 73 23 84 84 SW 15 24 29.85 1011 7 11.26538 0 0
3:56 am 03:56 Clear 78 25.5 73 22.7 85 85 SW 14 22 29.89 1012 7 11.26538 0 0
4:56 am 04:56 Clear 78 25.5 74 23.3 88 88 SSW 20 31 29.85 1011 7 11.26538 0 0
5:56 am 05:56 Partly Cloudy 78 25.5 74 23.3 88 88 SW 20 31 29.87 1012 7 11.26538 0 0
6:31 am 06:31 Mostly Cloudy with Mist and Fog 79 26 73 23 84 84 SSW 17 28 29.85 1011 6 9.65604 0 0
6:56 am 06:56 Partly Cloudy with Mist and Fog 78 25.5 74 23.3 88 88 SW 17 28 29.87 1012 5 8.0467 0 0
7:34 am 07:34 Mostly Cloudy with Mist and Fog 79 26 73 23 84 84 W 9 15 29.88 1012 5 8.0467 0 0
7:56 am 07:56 Cloudy with Mist and Fog 78 25.5 74 23.3 88 88 W 13 20 29.92 1013 5 8.0467 0 0
8:56 am 08:56 Mostly Cloudy with Mist and Fog 78 25.5 75 23.8 90 90 SW 9 15 29.93 1013 5 8.0467 0 0
9:56 am 09:56 Mostly Cloudy with Haze 81 27.2 76 24.4 85 85 SW 16 26 29.92 1013 5 8.0467 0 0
10:56 am 10:56 Cloudy with Haze 82 27.7 75 23.8 79 79 WSW 20 31 29.93 1013 6 9.65604 0 0
11:56 am 11:56 Mostly Cloudy 82 27.7 74 23.3 77 77 WNW 16 26 29.96 1015 7 11.26538 0 0
12:56 pm 12:56 Cloudy 79 26.1 73 22.7 82 82 NNW 12 19 29.99 1016 7 11.26538 0 0
1:33 pm 13:33 Hazy 81 27 72 22 74 74 NNW 8 13 29.97 1015 6 9.65604 0 0
1:56 pm 13:56 Sunny 83 28.3 72 22.2 70 70 NW 12 19 29.98 1015 8 12.87472 0 0
2:56 pm 14:56 Mostly Sunny 84 28.8 71 21.6 65 65 WNW 15 24 29.98 1015 8 12.87472 0 0
3:56 pm 15:56 Mostly Sunny 84 28.8 70 21.1 63 63 NW 13 20 29.99 1016 8 12.87472 0 0
4:56 pm 16:56 Sunny 84 28.8 65 18.3 53 53 WNW 14 22 29.99 1016 8 12.87472 0 0
5:56 pm 17:56 Sunny 83 28.3 63 17.2 51 51 NW 15 24 30 1016 8 12.87472 0 0
6:56 pm 18:56 Sunny 82 27.7 59 15 46 46 NW 10 17 29.99 1016 9 14.48406 0 0
7:56 pm 19:56 Sunny 79 26.1 61 16.1 54 54 NW 10 17 30.03 1017 9 14.48406 0 0
8:56 pm 20:56 Sunny 74 23.3 60 15.5 62 62 NW 7 11 30.05 1018 8 12.87472 0 0
9:56 pm 21:56 Clear 71 21.6 61 16.1 71 71 WNW 6 9 30.07 1018 9 14.48406 0 0
10:56 pm 22:56 Clear 69 20.5 60 15.5 73 73 NW 6 9 30.08 1019 10 16.0934 0 0
11:56 pm 23:56 Clear 67 19.4 60 15.5 78 78 NNW 5 7 30.08 1019 9 14.48406 0 0

Powered by AerisWeather